Weather History for Ann Arbor, MI

Change the Weather History Date:

Saturday, June 29, 2013

  Actual Average Record
Temperature  
Mean Temperature 66 °F -  
Max Temperature 73 °F 79 °F 91 °F (2012)
Min Temperature 60 °F 55 °F 44 °F (2004)
Cooling Degree Days 2    
Growing Degree Days 16 (Base 50)    
Moisture  
Dew Point 62 °F    
Average Humidity 90    
Maximum Humidity 100    
Minimum Humidity 68    
Precipitation  
Precipitation 0.30 in - - ()
Sea Level Pressure  
Sea Level Pressure 29.61 in    
Wind  
Wind Speed 2 mph (North)    
Max Wind Speed 10 mph    
Max Gust Speed -    
Visibility 7 miles    
Events Fog , Rain , Thunderstorm    
Averages and records for this station are not official NWS values.
T = Trace of Precipitation, MM = Missing Value Source: NWS Daily Summary

Daily Weather History Graph

Daily Weather History Graph

Search for Another Location

Airport:

Trip Planner

Search our weather history database for the weather conditions in past years. The results will help you decide how hot, cold, wet, or windy it might be!

Date:

Astronomy

Jun. 29, 2013 Rise Set
Actual Time 6:01 AM EDT 9:15 PM EDT
Civil Twilight 5:26 AM EDT 9:49 PM EDT
Nautical Twilight 4:42 AM EDT 10:34 PM EDT
Astronomical Twilight 3:48 AM EDT 11:28 PM EDT
Moon 12:36 AM EDT (6/29) 1:20 PM EDT (6/29)
Length of Visible Light 16h 22m
Length of Day
15h 13m
Waning Gibbous, 56% of the Moon is Illuminated
Jun 29
Waning Gibbous
Jun 30
Last Quarter
Jul 8
New
Jul 15
First Quarter
Jul 22
Full

Hourly Weather History & Observations

Time (EDT) Temp. Dew Point Humidity Pressure Visibility Wind Dir Wind Speed Gust Speed Precip Events Conditions
12:53 AM 60.1 °F 59.0 °F 96% 29.57 in 9.0 mi Calm Calm - N/A   Clear
1:53 AM 63.0 °F 61.0 °F 93% 29.55 in 10.0 mi Calm Calm - N/A   Overcast
2:53 AM 61.0 °F 60.1 °F 97% 29.55 in 7.0 mi Calm Calm - N/A   Overcast
3:45 AM 62.6 °F 60.8 °F 94% 29.56 in 6.0 mi NNW 3.5 mph - N/A   Mostly Cloudy
3:53 AM 63.0 °F 61.0 °F 93% 29.55 in 5.0 mi NNW 4.6 mph - N/A   Mostly Cloudy
4:46 AM 62.6 °F 60.8 °F 94% 29.56 in 2.5 mi Calm Calm - N/A   Overcast
4:50 AM 60.8 °F 60.8 °F 100% 29.56 in 1.2 mi Calm Calm - N/A   Overcast
4:53 AM 61.0 °F 60.1 °F 97% 29.55 in 1.0 mi Calm Calm - N/A   Overcast
5:11 AM 60.8 °F 60.8 °F 100% 29.56 in 0.8 mi Calm Calm - N/A   Mostly Cloudy
5:26 AM 62.6 °F 60.8 °F 94% 29.57 in 1.8 mi Calm Calm - N/A   Mostly Cloudy
5:37 AM 62.6 °F 60.8 °F 94% 29.57 in 0.8 mi Calm Calm - N/A   Overcast
5:53 AM 62.1 °F 62.1 °F 100% 29.57 in 0.5 mi Calm Calm - N/A Fog Fog
6:05 AM 62.6 °F 62.6 °F 100% 29.58 in 1.5 mi Calm Calm - N/A   Overcast
6:11 AM 62.6 °F 62.6 °F 100% 29.58 in 3.0 mi Calm Calm - N/A   Overcast
6:30 AM 62.6 °F 62.6 °F 100% 29.58 in 2.0 mi NNW 3.5 mph - N/A   Overcast
6:39 AM 62.6 °F 62.6 °F 100% 29.58 in 5.0 mi Calm Calm - N/A   Overcast
6:49 AM 62.6 °F 62.6 °F 100% 29.58 in 6.0 mi Calm Calm - N/A   Overcast
6:53 AM 63.0 °F 62.1 °F 97% 29.58 in 7.0 mi NNW 3.5 mph - N/A   Overcast
7:53 AM 64.9 °F 63.0 °F 93% 29.58 in 10.0 mi NNW 4.6 mph - N/A   Overcast
8:43 AM 66.2 °F 62.6 °F 88% 29.59 in 10.0 mi NNW 6.9 mph - N/A   Mostly Cloudy
8:53 AM 66.0 °F 63.0 °F 90% 29.59 in 10.0 mi NNW 5.8 mph - N/A   Overcast
9:03 AM 66.2 °F 62.6 °F 88% 29.60 in 10.0 mi NNW 6.9 mph - N/A   Overcast
9:19 AM 66.2 °F 62.6 °F 88% 29.60 in 10.0 mi NNW 5.8 mph - N/A   Overcast
9:34 AM 66.2 °F 62.6 °F 88% 29.61 in 10.0 mi North 4.6 mph - N/A   Overcast
9:53 AM 66.9 °F 63.0 °F 87% 29.60 in 10.0 mi NNW 3.5 mph - N/A   Overcast
10:17 AM 66.2 °F 62.6 °F 88% 29.61 in 10.0 mi NNW 4.6 mph - N/A   Overcast
10:35 AM 68.0 °F 62.6 °F 83% 29.61 in 10.0 mi Calm Calm - N/A   Overcast
10:53 AM 70.0 °F 63.0 °F 78% 29.60 in 10.0 mi NE 4.6 mph - N/A   Overcast
11:20 AM 71.6 °F 62.6 °F 73% 29.61 in 10.0 mi Calm Calm - N/A   Overcast
11:53 AM 72.0 °F 62.1 °F 71% 29.60 in 10.0 mi Variable 3.5 mph - N/A   Overcast
12:08 PM 71.6 °F 62.6 °F 73% 29.61 in 10.0 mi NNW 3.5 mph - N/A   Overcast
12:49 PM 66.2 °F 62.6 °F 88% 29.62 in 6.0 mi NE 5.8 mph - 0.01 in Rain Light Rain
12:53 PM 66.9 °F 63.0 °F 87% 29.62 in 4.0 mi NE 4.6 mph - 0.01 in Rain Light Rain
1:53 PM 68.0 °F 64.9 °F 90% 29.61 in 10.0 mi East 4.6 mph - 0.06 in   Overcast
2:53 PM 71.1 °F 63.0 °F 75% 29.61 in 10.0 mi Calm Calm - N/A   Overcast
3:53 PM 71.1 °F 64.0 °F 78% 29.62 in 10.0 mi NNW 4.6 mph - N/A   Overcast
4:53 PM 73.0 °F 62.1 °F 68% 29.63 in 10.0 mi Calm Calm - N/A   Overcast
5:53 PM 69.1 °F 63.0 °F 81% 29.64 in 10.0 mi ESE 10.4 mph - N/A   Overcast
6:44 PM 66.2 °F 64.4 °F 94% 29.66 in 9.0 mi Calm Calm - 0.05 in Rain , Thunderstorm Light Rain
6:53 PM 66.9 °F 64.0 °F 90% 29.65 in 10.0 mi East 3.5 mph - 0.05 in Thunderstorm Overcast
7:20 PM 66.2 °F 62.6 °F 88% 29.67 in 1.8 mi ESE 9.2 mph - 0.08 in Rain , Thunderstorm Heavy Thunderstorms and Rain
7:34 PM 66.2 °F 62.6 °F 88% 29.68 in 3.0 mi Calm Calm - 0.12 in Rain , Thunderstorm Light Rain
7:43 PM 66.2 °F 62.6 °F 88% 29.68 in 6.0 mi Calm Calm - 0.13 in Rain Light Rain
7:53 PM 66.0 °F 63.0 °F 90% 29.68 in 8.0 mi South 3.5 mph - 0.13 in Rain Light Rain
8:27 PM 64.4 °F 62.6 °F 94% 29.69 in 2.0 mi West 3.5 mph - 0.04 in Rain Rain
8:39 PM 64.4 °F 64.4 °F 100% 29.70 in 5.0 mi WNW 3.5 mph - 0.05 in Rain Light Rain
8:53 PM 66.0 °F 63.0 °F 90% 29.69 in 8.0 mi Calm Calm - 0.05 in   Overcast
9:53 PM 64.9 °F 63.0 °F 93% 29.71 in 6.0 mi NE 4.6 mph - N/A   Overcast
10:53 PM 64.0 °F 59.0 °F 84% 29.73 in 10.0 mi Calm Calm - N/A   Clear
11:53 PM 61.0 °F 57.9 °F 90% 29.74 in 10.0 mi NNE 3.5 mph - N/A   Mostly Cloudy